Flag for Germany Weather past 2 weeks in Gummersbach, North Rhine-Westphalia, Germany

Now
68 °F

Scattered clouds.


Feels Like: 68 °F
Forecast: 52 / 69 °F
Wind: 5 mph from Southeast

Location: Koeln / Bonn

Current Time: Aug 27, 2014 at 7:37:17 PM

Latest Report: Aug 27, 2014 at 7:20 PM


Visibility: N/A

Pressure: 30.01 "Hg

Humidity: 56%

Dew point: 52 °F

Location of GummersbachLocation

Historic Weather in Gummersbach — Graph

°F

Gummersbach temperature yesterday

Maximum temperature yesterday: 61 °F (at 2:20 PM)
Minimum temperature yesterday: 55 °F (at 12:20 AM)
Average temperature yesterday: 57 °F

Past Weeks' High & Low Weather Summary

 TemperatureHumidityPressure
High70 °F (Aug 27, 3:20 PM)100% (Aug 16, 1:50 AM)30.09 "Hg (Aug 16, 1:50 AM)
Low45 °F (Aug 20, 5:20 AM)40% (Aug 18, 2:20 PM)29.62 "Hg (Aug 26, 4:50 AM)
Average57 °F81%29.90 "Hg
* Reported Aug 12 6:20 PM — Aug 27 6:20 PM, Gummersbach, Weather by CustomWeather, © 2014

Note: Actual official high and low records may vary slightly from our data, if they occured in-between our weather recording intervals... More about our weather records

Advertising

Gummersbach weather history for previous 24 hours

 ConditionsComfort  
Time TempWeatherWind HumidityBarometerVisibility
6:20 PM
Aug 27
70 °FPassing clouds.5 mph53%30.01 "HgN/A
5:50 PM70 °FPassing clouds.6 mph53%30.01 "HgN/A
4:20 PM70 °FScattered clouds.5 mph50%30.01 "HgN/A
3:50 PM70 °FScattered clouds.5 mph50%30.01 "HgN/A
3:20 PM70 °FPassing clouds.5 mph50%30.01 "HgN/A
2:50 PM68 °FPassing clouds.5 mph49%30.01 "HgN/A
2:20 PM68 °FPassing clouds.5 mph53%30.01 "HgN/A
1:50 PM68 °FScattered clouds.5 mph49%30.01 "HgN/A
1:20 PM66 °FScattered clouds.5 mph56%30.01 "HgN/A
12:20 PM64 °FPassing clouds.8 mph64%30.01 "HgN/A
11:50 AM64 °FPassing clouds.7 mph68%30.01 "HgN/A
11:20 AM63 °FPassing clouds.7 mph73%30.01 "HgN/A
10:50 AM63 °FPassing clouds.5 mph68%30.01 "HgN/A
10:20 AM61 °FPassing clouds.6 mph77%30.01 "HgN/A
9:50 AM59 °FPassing clouds.6 mph82%29.98 "HgN/A
9:20 AM57 °FPassing clouds.3 mph88%29.98 "HgN/A
8:50 AM55 °FPassing clouds.2 mph100%29.98 "HgN/A
8:20 AM52 °FLight fog.3 mph100%29.95 "HgN/A
7:50 AM48 °FLight fog.2 mph100%29.95 "HgN/A
7:20 AM48 °FCool.3 mph94%29.95 "Hg2 mi
6:50 AM50 °FSnow. Overcast.2 mph94%29.92 "Hg1 mi
6:20 AM50 °FCool.1 mph100%29.92 "Hg1 mi
5:50 AM50 °FCool.2 mph100%29.89 "Hg2 mi
5:20 AM52 °FCool.2 mph94%29.89 "Hg5 mi
4:50 AM54 °FPassing clouds.3 mph94%29.89 "HgN/A
4:20 AM54 °FPassing clouds.1 mph100%29.86 "HgN/A
3:50 AM55 °FPassing clouds.3 mph94%29.86 "HgN/A
3:20 AM55 °FPassing clouds.2 mph94%29.86 "HgN/A
2:50 AM55 °FPassing clouds.2 mph94%29.86 "HgN/A
2:20 AM55 °FPartly cloudy.1 mph94%29.83 "HgN/A
1:50 AM55 °FPartly cloudy.2 mph94%29.83 "HgN/A
1:20 AM55 °FPartly cloudy.3 mph94%29.83 "HgN/A
12:50 AM55 °FLight rain. Partly cloudy.2 mph94%29.80 "HgN/A
12:20 AM55 °FLight rain. Partly cloudy.3 mph94%29.80 "HgN/A
11:20 PM
Aug 26
55 °FLight rain. Partly cloudy.6 mph94%29.80 "HgN/A
10:50 PM55 °FLight rain. Partly cloudy.7 mph94%29.77 "HgN/A
10:20 PM55 °FLight rain. Partly cloudy.10 mph100%29.77 "HgN/A
9:50 PM57 °FRain. Passing clouds.7 mph94%29.74 "Hg5 mi
9:20 PM57 °FRain. Partly sunny.5 mph94%29.74 "Hg5 mi
8:50 PM57 °FLight rain. Partly sunny.8 mph94%29.74 "Hg5 mi
8:20 PM57 °FRain. Partly sunny.10 mph94%29.71 "Hg4 mi
7:50 PM57 °FRain. Partly sunny.9 mph94%29.71 "Hg5 mi
7:20 PM57 °FRain. Partly sunny.9 mph94%29.71 "HgN/A
Weather by CustomWeather, © 2014

See weather overviewHow to use our weather pages